TimePST,TemperatureF,Dew PointF,Humidity,Sea Level PressureIn,VisibilityMPH,Wind Direction,Wind SpeedMPH,Gust SpeedMPH,PrecipitationIn,Events,Conditions,WindDirDegrees,DateUTC
12:56 AM,57.9,51.1,78,30.07,10.0,ESE,8.1,-,N/A,,Partly Cloudy,120,2012-11-29 08:56:00
1:56 AM,59.0,51.1,75,30.07,10.0,SE,4.6,-,N/A,,Mostly Cloudy,130,2012-11-29 09:56:00
2:56 AM,57.9,51.1,78,30.07,10.0,SE,9.2,-,N/A,,Clear,130,2012-11-29 10:56:00
3:56 AM,57.9,50.0,75,30.06,10.0,SE,6.9,-,N/A,,Clear,130,2012-11-29 11:56:00
4:56 AM,57.0,50.0,77,30.06,10.0,ESE,6.9,-,N/A,,Clear,110,2012-11-29 12:56:00
5:56 AM,57.9,51.1,78,30.06,10.0,East,10.4,-,N/A,,Clear,100,2012-11-29 13:56:00
6:56 AM,57.9,51.1,78,30.06,10.0,ESE,9.2,-,N/A,,Clear,110,2012-11-29 14:56:00
7:56 AM,57.9,51.1,78,30.05,10.0,ESE,5.8,-,N/A,,Clear,110,2012-11-29 15:56:00
8:56 AM,60.1,50.0,69,30.06,10.0,SE,10.4,-,N/A,,Clear,140,2012-11-29 16:56:00
9:56 AM,61.0,48.9,64,30.06,10.0,SSE,9.2,-,N/A,,Partly Cloudy,150,2012-11-29 17:56:00
10:56 AM,61.0,50.0,67,30.05,10.0,SSE,10.4,23.0,N/A,,Overcast,150,2012-11-29 18:56:00
11:56 AM,62.1,52.0,70,30.04,10.0,SSE,11.5,20.7,N/A,,Mostly Cloudy,160,2012-11-29 19:56:00
12:56 PM,62.1,53.1,72,30.02,10.0,SSE,12.7,21.9,N/A,,Mostly Cloudy,160,2012-11-29 20:56:00
1:56 PM,60.1,55.9,86,30.01,3.0,SE,12.7,21.9,0.00,Rain,Light Rain,140,2012-11-29 21:56:00
2:38 PM,60.8,57.2,88,29.98,6.0,SSE,11.5,18.4,0.01,Rain,Light Rain,160,2012-11-29 22:38:00
2:56 PM,62.1,55.0,78,29.98,10.0,SSE,11.5,20.7,0.01,,Overcast,160,2012-11-29 22:56:00
3:56 PM,63.0,55.0,75,29.98,10.0,SE,9.2,20.7,0.00,Rain,Light Rain,140,2012-11-29 23:56:00
4:56 PM,62.1,55.9,80,29.98,10.0,SE,9.2,-,0.01,Rain,Light Rain,140,2012-11-30 00:56:00
5:34 PM,60.8,57.2,88,29.97,10.0,SE,12.7,-,0.01,Rain,Light Rain,140,2012-11-30 01:34:00
5:56 PM,62.1,57.0,84,29.96,10.0,SE,11.5,-,0.01,Rain,Light Rain,140,2012-11-30 01:56:00
6:56 PM,62.1,57.0,84,29.96,10.0,SE,12.7,-,0.02,Rain,Light Rain,140,2012-11-30 02:56:00
7:56 PM,62.1,57.0,84,29.96,10.0,SSE,10.4,-,0.01,Rain,Light Rain,160,2012-11-30 03:56:00
8:13 PM,62.6,57.2,82,29.94,8.0,SSE,11.5,19.6,0.00,Rain,Light Rain,150,2012-11-30 04:13:00
8:52 PM,62.6,57.2,82,29.93,9.0,SE,15.0,20.7,0.00,Rain,Light Rain,130,2012-11-30 04:52:00
8:56 PM,61.0,57.0,87,29.94,8.0,SE,13.8,20.7,0.00,Rain,Light Rain,140,2012-11-30 04:56:00
9:56 PM,62.1,57.9,86,29.93,9.0,ESE,12.7,-,0.01,Rain,Light Rain,120,2012-11-30 05:56:00
10:34 PM,62.6,57.2,82,29.93,6.0,SSE,9.2,-,0.02,Rain,Light Rain,160,2012-11-30 06:34:00
10:56 PM,62.1,57.9,86,29.93,10.0,SE,11.5,19.6,0.03,Rain,Light Rain,140,2012-11-30 06:56:00
11:54 PM,62.6,57.2,82,29.91,8.0,SE,11.5,-,0.02,Rain,Light Rain,140,2012-11-30 07:54:00
11:56 PM,62.1,57.9,86,29.92,9.0,SE,11.5,-,0.02,Rain,Light Rain,140,2012-11-30 07:56:00